Starlink 31218

operational
NORAD ID: 58895 Int'l Des: 2024-020 Owner: SPXS Country: US Constellation: starlink
LEOCIRCULAR

About Starlink 31218

Description loading...

Live Position

Loading 3D Globe...

Upcoming Passes

Altitude History

Altitude vs Time

uPlot chart will show altitude changes over time

Two-Line Element Set

1 58895U 24020V 26037.49950535 -.00001267 00000-0 -30668-4 0 9996
2 58895 53.1604 107.4421 0001435 85.2254 274.8911 15.30181779113294
Epoch: Feb 6, 2026 • Age: 5 hours

Current Status

Altitude 476.0 km
Velocity 7.63 km/s
Sub-Earth Point 1.74°N, 113.74°W
Launch Date Jan 29, 2024
Age 2 years
Type internet

Technical Details

Classification Payload
Mass 730.00 kg
Dry Mass 700.00 kg
Total Mass 730.00 kg
Length 0.30 m
Diameter 4.10 m
Span 29.00 m
Shape Box + pan
Manufacturer SPXS
Bus Type Starlink V2M
Phase Status In Orbit
Owner/State SPXS/US

Large Constellations

Loading constellations...